Tracking 23610 objects as of 21-Sep-2021
HD Live streaming from Space Station
objects crossing your sky now

STARLINK-1705

Track STARLINK-1705 now!
10-day predictions
STARLINK-1705 is classified as:


NORAD ID: 46579
Int'l Code: 2020-070AZ
Perigee: 553.9 km
Apogee: 554.9 km
Inclination: 53.1 °
Period: 95.6 minutes
Semi major axis: 6925 km
RCS: Unknown
Launch date: October 6, 2020
Source: United States (US)
Launch site: AIR FORCE EASTERN TEST RANGE (AFETR)
aabbcc
Your satellite tracking list
Your tracking list is empty




NASA's NSSDC Master Catalog

Two Line Element Set (TLE):
1 46579U 20070AZ  21263.47087528 -.00002573  00000-0 -15402-3 0  9999
2 46579  53.0535 284.4558 0000763  75.6541 284.4532 15.06379996 53858
Source of the keplerian elements: AFSPC